Regional Weather Roundup
Issued by NWS Bismarck, ND

Home | Current Version | Previous Version | Text Only | Print | Product List | Glossary On
Versions: 1 2 3 4 5 6 7 8 9 10 11 12 13 14 15 16 17 18 19 20 21 22 23 24 25 26 27 28 29 30 31 32 33 34 35 36 37 38 39 40 41 42 43 44 45 46 47 48 49 50
000
ASUS43 KBIS 240710
RWRBIS

NWR BROADCAST TEXT
NATIONAL WEATHER SERVICE BISMARCK ND
100 AM CST TUE JAN 24 2017

NOTE: "FAIR" INDICATES FEW OR NO CLOUDS BELOW 12,000 FEET WITH NO
SIGNIFICANT WEATHER AND/OR OBSTRUCTIONS TO VISIBILITY.


CITY           SKY/WX    TMP DP  RH WIND       PRES   REMARKS
WILLISTON      CLOUDY    22  19  89 W7        29.84S WCI  13
MINOT          CLOUDY    23  18  81 SW12      29.81S WCI  12
MINOT AFB      CLOUDY    22  18  84 W14       29.80S WCI   9
BISMARCK       CLOUDY    29  24  82 NW7       29.84S
DICKINSON      LGT SNOW  22  20  92 N12       29.78R FOG     WCI  10
GARRISON         N/A     21  17  84 W8        29.82S WCI  11
HETTINGER ARPT FOG       21  20  96 N5        29.79S VSB 1/2 WCI  15
JAMESTOWN      CLOUDY    28  24  85 W5        29.81F
CARRINGTON     CLOUDY    23  21  93 NW12      29.84S WCI  12
HAZEN            N/A    N/A N/A N/A W7        29.86S
MANDAN         CLOUDY    27  25  93 NW8       29.83S WCI  18
RUGBY            N/A     21  19  93 W14       29.80S WCI   8
STANLEY        CLOUDY    21  19  93 NW10      29.82S WCI  10
TIOGA          CLOUDY    19  19 100 W12       29.82S WCI   7
WATFORD CITY   CLOUDY    19  18  93 SW6       29.84R WCI  11
$$

CITY           SKY/WX    TMP DP  RH WIND       PRES   REMARKS
GRAND FORKS    CLOUDY    26  19  74 W9        29.85R WCI  17
GRAND FORKS AF CLOUDY    24  19  80 W10       29.85R WCI  14
DEVILS LAKE    CLOUDY    22  19  89 W14       29.81S WCI   9
FARGO          CLOUDY    33  25  72 W6        29.86S
CAVALIER       CLOUDY    27  23  86 W8        29.80S WCI  18
GRAFTON        CLOUDY    25  23  93 SW10      29.84S WCI  15
GWINNER        CLOUDY    32  28  86 N5        29.85S
ROLLA            N/A    N/A N/A N/A MISG        N/A
$$

CITY           SKY/WX    TMP DP  RH WIND       PRES   REMARKS
ABERDEEN       LGT SNOW  29  25  85 N5        29.83F FOG
MOBRIDGE       CLOUDY    28  23  81 NE8       29.77F WCI  20
BUFFALO          N/A     24  20  84 NE7       29.68F WCI  16
RAPID CITY     CLOUDY    23  21  92 N13       29.71R FOG     WCI  11
GLASGOW        CLOUDY    20  16  84 NW8       29.85R WCI  10
SIDNEY         CLOUDY    21  19  92 SW3       29.86R
WOLF POINT     CLOUDY    23  18  81 W6        29.86S WCI  16
GLENDIVE       MIX PCPN  22  21  96 CALM      29.84R FOG
MILES CITY     CLOUDY    24  20  84 CALM      29.82R FOG
BAKER          CLOUDY    21  18  88 CALM      29.78F
$$

CITY           SKY/WX    TMP DP  RH WIND       PRES   REMARKS
BILLINGS       LGT SNOW  23  22  96 E5        29.78S FOG     WCI  17
GREAT FALLS    CLOUDY    17  14  88 SW5       29.85R WCI  10
REGINA         CLOUDY    16  12  86 NW12      29.83R WCI   3
ESTEVAN        FLURRIES  19  16  86 NW14      29.81R WCI   6
$$





USA.gov is the U.S. government's official web portal to all federal, state and local government web resources and services.